Hourly Weather Bolshoe Nikitino

Today, 2 August, Monday

Time Temperature Precipitation Wind Pressure Humidity
00:00 +16°C° 0 mm 2 mps 738 mmHg 95%
01:00 +16°C° 0 mm 2 mps 738 mmHg 95%
02:00 +15°C° 0 mm 2 mps 738 mmHg 95%
03:00 +16°C° 0 mm 1 mps 738 mmHg 93%
04:00 +16°C° 0 mm 1 mps 738 mmHg 92%
05:00 +16°C° 0 mm 1 mps 738 mmHg 91%
06:00 +19°C° 0 mm 1 mps 738 mmHg 83%
07:00 +21°C° 0 mm 1 mps 738 mmHg 75%
08:00 +22°C° 0 mm 1 mps 739 mmHg 67%
09:00 +24°C° 0 mm 2 mps 738 mmHg 59%
10:00 +26°C° 0 mm 2 mps 738 mmHg 50%
11:00 +27°C° 0 mm 2 mps 738 mmHg 41%
12:00 +27°C° 0 mm 2 mps 737 mmHg 41%
13:00 +27°C° 0 mm 2 mps 737 mmHg 41%
14:00 +27°C° 0 mm 2 mps 736 mmHg 41%
15:00 +25°C° 0.8 mm 2 mps 735 mmHg 56%
16:00 +23°C° 0.8 mm 2 mps 735 mmHg 71%
17:00 +20°C° 0.8 mm 2 mps 734 mmHg 86%
18:00 +20°C° 1.5 mm 3 mps 734 mmHg 89%
19:00 +20°C° 1.5 mm 3 mps 733 mmHg 92%
20:00 +19°C° 1.5 mm 4 mps 732 mmHg 95%
21:00 +19°C° 0.3 mm 4 mps 732 mmHg 95%
22:00 +19°C° 0.3 mm 5 mps 732 mmHg 95%
23:00 +19°C° 0.3 mm 5 mps 732 mmHg 94%

Tomorrow, 3 August, Tuesday

Time Temperature Precipitation Wind Pressure Humidity
00:00 +17°C° 0.5 mm 5 mps 732 mmHg 92%
01:00 +16°C° 0.5 mm 5 mps 732 mmHg 90%
02:00 +16°C° 0.5 mm 5 mps 732 mmHg 88%
03:00 +15°C° 0 mm 5 mps 733 mmHg 86%
04:00 +15°C° 0 mm 5 mps 733 mmHg 84%
05:00 +15°C° 0 mm 5 mps 734 mmHg 82%
06:00 +16°C° 0 mm 5 mps 734 mmHg 75%
07:00 +17°C° 0 mm 5 mps 735 mmHg 68%
08:00 +19°C° 0 mm 5 mps 735 mmHg 61%
09:00 +20°C° 0 mm 5 mps 735 mmHg 59%
10:00 +20°C° 0 mm 5 mps 736 mmHg 57%
11:00 +21°C° 0 mm 5 mps 736 mmHg 55%
12:00 +22°C° 0 mm 5 mps 736 mmHg 49%
13:00 +23°C° 0 mm 5 mps 736 mmHg 43%
14:00 +25°C° 0 mm 5 mps 736 mmHg 37%
15:00 +23°C° 0 mm 5 mps 736 mmHg 39%
16:00 +23°C° 0 mm 4 mps 736 mmHg 41%
17:00 +23°C° 0 mm 4 mps 736 mmHg 43%
18:00 +21°C° 0 mm 3 mps 737 mmHg 52%
19:00 +19°C° 0 mm 3 mps 737 mmHg 61%
20:00 +17°C° 0 mm 2 mps 738 mmHg 70%
21:00 +16°C° 0 mm 2 mps 738 mmHg 75%
22:00 +15°C° 0 mm 2 mps 738 mmHg 79%
23:00 +14°C° 0 mm 2 mps 739 mmHg 84%

Day after tomorrow, 4 August, Wednesday

Time Temperature Precipitation Wind Pressure Humidity
00:00 +13°C° 0 mm 2 mps 739 mmHg 88%
01:00 +12°C° 0 mm 2 mps 740 mmHg 91%
02:00 +10°C° 0 mm 2 mps 740 mmHg 94%
03:00 +10°C° 0 mm 2 mps 741 mmHg 92%
04:00 +12°C° 0 mm 2 mps 741 mmHg 89%
05:00 +12°C° 0 mm 2 mps 741 mmHg 87%
06:00 +13°C° 0 mm 2 mps 742 mmHg 75%
07:00 +15°C° 0 mm 2 mps 742 mmHg 63%
08:00 +17°C° 0 mm 2 mps 742 mmHg 51%
09:00 +18°C° 0 mm 3 mps 742 mmHg 46%
10:00 +20°C° 0 mm 3 mps 743 mmHg 41%
11:00 +21°C° 0 mm 3 mps 743 mmHg 36%
12:00 +21°C° 0 mm 3 mps 743 mmHg 35%
13:00 +22°C° 0 mm 3 mps 743 mmHg 35%
14:00 +22°C° 0 mm 4 mps 743 mmHg 34%
15:00 +21°C° 0 mm 3 mps 743 mmHg 38%
16:00 +21°C° 0 mm 3 mps 743 mmHg 42%
17:00 +20°C° 0 mm 3 mps 743 mmHg 46%
18:00 +18°C° 0 mm 2 mps 743 mmHg 50%
19:00 +17°C° 0 mm 2 mps 744 mmHg 54%
20:00 +16°C° 0 mm 1 mps 744 mmHg 58%
21:00 +15°C° 0 mm 1 mps 744 mmHg 61%
22:00 +14°C° 0 mm 1 mps 744 mmHg 64%
23:00 +13°C° 0 mm 1 mps 745 mmHg 67%

5 August, Thursday

Time Temperature Precipitation Wind Pressure Humidity
00:00 +13°C° 0 mm 1 mps 745 mmHg 68%
01:00 +13°C° 0 mm 1 mps 745 mmHg 70%
02:00 +11°C° 0 mm 0 mps 745 mmHg 71%
03:00 +12°C° 0 mm 0 mps 745 mmHg 70%
04:00 +12°C° 0 mm 0 mps 746 mmHg 70%
05:00 +12°C° 0 mm 0 mps 746 mmHg 69%
06:00 +14°C° 0 mm 0 mps 746 mmHg 63%
07:00 +16°C° 0 mm 0 mps 746 mmHg 57%
08:00 +17°C° 0 mm 0 mps 746 mmHg 51%
09:00 +19°C° 0 mm 0 mps 746 mmHg 46%
10:00 +20°C° 0 mm 0 mps 746 mmHg 42%
11:00 +21°C° 0 mm 0 mps 746 mmHg 37%
12:00 +22°C° 0 mm 0 mps 746 mmHg 36%
13:00 +22°C° 0 mm 0 mps 746 mmHg 36%
14:00 +22°C° 0 mm 0 mps 746 mmHg 35%
15:00 +23°C° 0 mm 1 mps 746 mmHg 41%
16:00 +22°C° 0 mm 1 mps 746 mmHg 47%
17:00 +20°C° 0 mm 2 mps 746 mmHg 53%
18:00 +18°C° 0 mm 2 mps 746 mmHg 57%
19:00 +17°C° 0 mm 2 mps 746 mmHg 61%
20:00 +15°C° 0 mm 2 mps 746 mmHg 65%
21:00 +15°C° 0 mm 1 mps 746 mmHg 67%
22:00 +14°C° 0 mm 1 mps 746 mmHg 69%
23:00 +13°C° 0 mm 1 mps 746 mmHg 72%

6 August, Friday

Time Temperature Precipitation Wind Pressure Humidity
00:00 +14°C° 0 mm 1 mps 746 mmHg 69%
01:00 +14°C° 0 mm 1 mps 746 mmHg 66%
02:00 +14°C° 0 mm 2 mps 746 mmHg 63%
03:00 +14°C° 0 mm 2 mps 747 mmHg 63%
04:00 +14°C° 0 mm 2 mps 747 mmHg 64%
05:00 +15°C° 0 mm 1 mps 747 mmHg 64%
06:00 +16°C° 0 mm 2 mps 747 mmHg 63%
07:00 +17°C° 0 mm 2 mps 747 mmHg 61%
08:00 +19°C° 0 mm 2 mps 747 mmHg 59%
09:00 +20°C° 0 mm 3 mps 747 mmHg 52%
10:00 +22°C° 0 mm 3 mps 747 mmHg 46%
11:00 +23°C° 0 mm 4 mps 747 mmHg 39%
12:00 +25°C° 0 mm 4 mps 746 mmHg 37%
13:00 +25°C° 0 mm 4 mps 746 mmHg 36%
14:00 +26°C° 0 mm 5 mps 746 mmHg 34%
15:00 +25°C° 0 mm 4 mps 746 mmHg 37%
16:00 +25°C° 0 mm 4 mps 746 mmHg 40%
17:00 +23°C° 0 mm 4 mps 746 mmHg 44%
18:00 +21°C° 0 mm 4 mps 746 mmHg 51%
19:00 +20°C° 0 mm 3 mps 746 mmHg 59%
20:00 +18°C° 0 mm 3 mps 746 mmHg 67%
21:00 +18°C° 0 mm 3 mps 746 mmHg 72%
22:00 +17°C° 0 mm 3 mps 746 mmHg 78%
23:00 +17°C° 0 mm 3 mps 746 mmHg 83%

7 August, Saturday

Time Temperature Precipitation Wind Pressure Humidity
00:00 +17°C° 0.2 mm 4 mps 746 mmHg 84%
01:00 +15°C° 0.2 mm 4 mps 746 mmHg 86%
02:00 +15°C° 0.2 mm 4 mps 746 mmHg 87%
03:00 +15°C° 0.9 mm 4 mps 746 mmHg 90%
04:00 +14°C° 0.9 mm 4 mps 746 mmHg 93%
05:00 +14°C° 0.9 mm 4 mps 746 mmHg 96%
06:00 +14°C° 0.4 mm 5 mps 746 mmHg 96%
07:00 +15°C° 0.4 mm 5 mps 746 mmHg 96%
08:00 +15°C° 0.4 mm 5 mps 746 mmHg 96%
09:00 +16°C° 0 mm 6 mps 745 mmHg 90%
10:00 +17°C° 0 mm 6 mps 745 mmHg 85%
11:00 +19°C° 0 mm 6 mps 745 mmHg 79%
12:00 +21°C° 0 mm 6 mps 745 mmHg 70%
13:00 +23°C° 0 mm 6 mps 745 mmHg 61%
14:00 +24°C° 0 mm 6 mps 745 mmHg 52%
15:00 +24°C° 0 mm 6 mps 745 mmHg 54%
16:00 +24°C° 0 mm 6 mps 745 mmHg 56%
17:00 +23°C° 0 mm 5 mps 745 mmHg 58%
18:00 +22°C° 0 mm 5 mps 745 mmHg 62%
19:00 +21°C° 0 mm 5 mps 745 mmHg 67%
20:00 +19°C° 0 mm 4 mps 745 mmHg 71%
21:00 +19°C° 0 mm 4 mps 745 mmHg 70%
22:00 +19°C° 0 mm 4 mps 745 mmHg 69%
23:00 +19°C° 0 mm 4 mps 746 mmHg 68%
Show more

We Need Your Consent

Meteoprog and our Service Providers may store and access personal data such as cookies, device identifiers or other similar technologies on your device and process such data to personalise content and ads, as well as provide social media features and to analyse the traffic.

  • Store and/or access information on your device

    Cookies, device identifiers or other information can be stored or accessed on your device for the purposes indicated above.

  • Personalised ads and content, ad and content measurement, audience insights, and products development

    Ads and content can be personalised based on a profile. More data can be added to better personalise ads and content. Ad and content performance can be measured. Insights about the audience who saw the ads and content can be derived. Such data can be used to develop or improve user’s experience, systems and software.

By clicking ‘I Agree’ you will allow the use of indicated cookies, device identifiers, web beacons or other similar technologies. Your settings can be changed in the browser on your device.

For certain purposes, legitimate interests may be relied on, rather than consent. You can read more about this in our Privacy and Cookie Policy.